Date String (YYYY-MM-DD hh:mm:ss) UTC,Instrument flags,absolute air pressure of the measurement (hPa),sample flow rate (lpm),inlet stack bypass flow (lpm),air temperature of the measurement (°C),ambient temperature measured by the external sensor (°C),aerosol sample conditioner tube jacket temperature (°C),OPC LED temperature (°C),internal box temperature (°C),relative humidity of the measurement (%),span deviation,mass concentration of particles derived from Lorenz-Mie calculation of OPC scattering (μg/m³),mass concentration of particles derived from Lorenz-Mie calculation of OPC scattering (μg/m³),mass concentration of particles derived from Lorenz-Mie calculation of OPC scattering (μg/m³)
DateTimeUTC,F1_M11,P_M11,Q1_M11,Q2_M11,T1_M11,T2_M11,T3_M11,T4_M11,T5_M11,U1_M11,ZSPAN_M11,X2_M11,X0_M11,X1_M11
2024-01-07 00:00:00,SystemResetWarning,0819.9,5.00,000.00,019.7,018.6,000.0,028.1,020.6,6.9,0000.0,0000.99,0003.36,0000.69
2024-01-07 00:01:00,SystemResetWarning,0819.9,5.01,000.00,019.6,018.6,000.0,028.1,020.6,6.9,0000.0,0001.00,0003.25,0000.69
2024-01-07 00:02:00,SystemResetWarning,0820.2,4.99,000.00,019.6,018.6,000.0,028.0,020.5,6.9,0000.0,0000.97,0002.60,0000.68
2024-01-07 00:03:00,SystemResetWarning,0820.1,4.99,000.00,019.6,018.6,000.0,028.0,020.5,7.0,0000.0,0000.94,0002.32,0000.67
2024-01-07 00:04:00,SystemResetWarning,0819.7,4.99,000.00,019.5,018.6,000.0,028.0,020.5,7.0,0000.0,0000.92,0002.31,0000.67
2024-01-07 00:05:00,SystemResetWarning,0819.7,5.00,000.00,019.5,018.5,000.0,028.0,020.5,7.1,0000.0,0000.90,0002.28,0000.67
2024-01-07 00:06:00,SystemResetWarning,0819.9,5.00,000.00,019.5,018.5,000.0,028.0,020.6,7.2,0000.0,0000.89,0002.26,0000.67
2024-01-07 00:07:00,SystemResetWarning,0819.8,5.00,000.00,019.5,018.5,000.0,027.9,020.6,7.3,0000.0,0000.89,0001.80,0000.67
2024-01-07 00:08:00,SystemResetWarning,0819.9,5.01,000.00,019.5,018.4,000.0,027.9,020.6,7.3,0000.0,0000.88,0001.38,0000.67
2024-01-07 00:09:00,SystemResetWarning,0819.8,5.00,000.00,019.5,018.4,000.0,027.9,020.6,7.3,0000.0,0000.88,0001.42,0000.66
2024-01-07 00:10:00,SystemResetWarning,0819.7,5.00,000.00,019.5,018.4,000.0,027.9,020.6,7.3,0000.0,0000.86,0001.39,0000.65
2024-01-07 00:11:00,SystemResetWarning,0820.1,4.99,000.00,019.5,018.3,000.0,027.9,020.5,7.3,0000.0,0000.81,0001.25,0000.64
2024-01-07 00:12:00,SystemResetWarning,0820.0,5.00,000.00,019.5,018.3,000.0,027.9,020.5,7.3,0000.0,0000.77,0001.17,0000.64
2024-01-07 00:13:00,SystemResetWarning,0819.8,5.01,000.00,019.5,018.3,000.0,027.8,020.5,7.3,0000.0,0000.79,0001.22,0000.64
2024-01-07 00:14:00,SystemResetWarning,0819.8,5.00,000.00,019.5,018.3,000.0,027.8,020.5,7.3,0000.0,0000.81,0001.25,0000.64
2024-01-07 00:15:00,SystemResetWarning,0819.8,5.01,000.00,019.4,018.2,000.0,027.8,020.5,7.3,0000.0,0000.79,0001.21,0000.63
2024-01-07 00:16:00,SystemResetWarning,0819.7,5.01,000.00,019.4,018.2,000.0,027.8,020.5,7.3,0000.0,0000.81,0001.23,0000.64
2024-01-07 00:17:00,SystemResetWarning,0820.1,5.00,000.00,019.4,018.2,000.0,027.8,020.5,7.3,0000.0,0000.85,0001.80,0000.65
2024-01-07 00:18:00,SystemResetWarning,0819.9,5.00,000.00,019.4,018.2,000.0,027.8,020.5,7.3,0000.0,0000.87,0001.94,0000.66
2024-01-07 00:19:00,SystemResetWarning,0819.7,4.99,000.00,019.4,018.2,000.0,027.8,020.5,7.3,0000.0,0000.91,0002.20,0000.66
2024-01-07 00:20:00,SystemResetWarning,0819.9,4.99,000.00,019.4,018.2,000.0,027.8,020.5,7.3,0000.0,0000.91,0002.51,0000.67
2024-01-07 00:21:00,SystemResetWarning,0820.1,5.00,000.00,019.4,018.2,000.0,027.7,020.5,7.3,0000.0,0000.91,0002.74,0000.68
2024-01-07 00:22:00,SystemResetWarning,0819.9,5.01,000.00,019.4,018.2,000.0,027.7,020.5,7.3,0000.0,0000.94,0002.96,0000.68
2024-01-07 00:23:00,SystemResetWarning,0819.8,5.01,000.00,019.4,018.1,000.0,027.7,020.4,7.2,0000.0,0000.97,0003.41,0000.69
2024-01-07 00:24:00,SystemResetWarning,0820.0,5.00,000.00,019.4,018.1,000.0,027.7,020.4,7.2,0000.0,0000.98,0003.46,0000.70
2024-01-07 00:25:00,SystemResetWarning,0819.8,5.00,000.00,019.3,018.1,000.0,027.7,020.4,7.2,0000.0,0000.98,0003.44,0000.70
2024-01-07 00:26:00,SystemResetWarning,0819.7,5.00,000.00,019.3,018.0,000.0,027.7,020.4,7.2,0000.0,0001.01,0003.49,0000.72
2024-01-07 00:27:00,SystemResetWarning,0819.8,5.00,000.00,019.3,018.0,000.0,027.7,020.3,7.2,0000.0,0001.01,0003.51,0000.72
2024-01-07 00:28:00,SystemResetWarning,0819.7,5.00,000.00,019.3,018.0,000.0,027.6,020.3,7.2,0000.0,0000.98,0003.11,0000.71
2024-01-07 00:29:00,SystemResetWarning,0819.9,4.99,000.00,019.3,018.0,000.0,027.6,020.3,7.2,0000.0,0000.97,0002.84,0000.71
2024-01-07 00:30:00,SystemResetWarning,0819.8,5.00,000.00,019.3,017.9,000.0,027.6,020.3,7.1,0000.0,0000.93,0002.55,0000.71
2024-01-07 00:31:00,SystemResetWarning,0819.8,5.00,000.00,019.2,017.9,000.0,027.6,020.3,7.2,0000.0,0000.91,0002.22,0000.71
2024-01-07 00:32:00,SystemResetWarning,0819.8,5.00,000.00,019.2,017.9,000.0,027.6,020.3,7.2,0000.0,0000.93,0001.98,0000.72
2024-01-07 00:33:00,SystemResetWarning,0819.9,5.01,000.00,019.2,017.9,000.0,027.6,020.2,7.2,0000.0,0000.92,0001.82,0000.73
2024-01-07 00:34:00,SystemResetWarning,0819.8,5.01,000.00,019.2,017.9,000.0,027.6,020.2,7.2,0000.0,0000.92,0001.41,0000.73
2024-01-07 00:35:00,SystemResetWarning,0819.9,5.01,000.00,019.2,017.9,000.0,027.5,020.2,7.2,0000.0,0000.93,0001.43,0000.74
2024-01-07 00:36:00,SystemResetWarning,0820.0,5.00,000.00,019.1,017.9,000.0,027.5,020.2,7.2,0000.0,0000.92,0001.39,0000.74
2024-01-07 00:37:00,SystemResetWarning,0819.9,5.00,000.00,019.1,017.8,000.0,027.5,020.1,7.1,0000.0,0000.95,0001.43,0000.74
2024-01-07 00:38:00,SystemResetWarning,0819.9,4.99,000.00,019.1,017.8,000.0,027.5,020.1,7.0,0000.0,0000.97,0001.48,0000.75
2024-01-07 00:39:00,SystemResetWarning,0819.9,5.00,000.00,019.1,017.8,000.0,027.5,020.1,7.1,0000.0,0000.98,0001.48,0000.75
2024-01-07 00:40:00,SystemResetWarning,0819.9,5.00,000.00,019.1,017.7,000.0,027.4,020.0,7.0,0000.0,0000.97,0001.46,0000.75
2024-01-07 00:41:00,SystemResetWarning,0819.9,5.00,000.00,019.1,017.7,000.0,027.4,020.0,7.0,0000.0,0000.95,0001.42,0000.74
2024-01-07 00:42:00,SystemResetWarning,0819.9,5.01,000.00,019.0,017.6,000.0,027.4,020.0,7.0,0000.0,0000.96,0001.44,0000.74
2024-01-07 00:43:00,SystemResetWarning,0819.8,5.01,000.00,019.0,017.6,000.0,027.4,020.0,7.0,0000.0,0000.98,0001.51,0000.74
2024-01-07 00:44:00,SystemResetWarning,0819.8,5.01,000.00,019.0,017.6,000.0,027.4,020.0,7.0,0000.0,0000.98,0001.53,0000.73
2024-01-07 00:45:00,SystemResetWarning,0819.8,5.00,000.00,019.0,017.6,000.0,027.4,020.0,7.0,0000.0,0000.99,0001.54,0000.72
2024-01-07 00:46:00,SystemResetWarning,0819.8,4.99,000.00,019.0,017.6,000.0,027.4,020.0,7.0,0000.0,0000.98,0001.48,0000.72
2024-01-07 00:47:00,SystemResetWarning,0819.9,4.99,000.00,019.0,017.6,000.0,027.4,020.0,7.0,0000.0,0000.99,0001.49,0000.71
2024-01-07 00:48:00,SystemResetWarning,0819.8,5.01,000.00,018.9,017.6,000.0,027.4,020.0,7.1,0000.0,0000.95,0001.42,0000.71
2024-01-07 00:49:00,SystemResetWarning,0819.8,5.01,000.00,018.9,017.5,000.0,027.4,020.0,7.1,0000.0,0000.91,0001.36,0000.69
2024-01-07 00:50:00,SystemResetWarning,0819.8,5.00,000.00,018.9,017.5,000.0,027.4,020.0,7.1,0000.0,0000.90,0001.33,0000.68
2024-01-07 00:51:00,SystemResetWarning,0819.9,5.01,000.00,018.9,017.5,000.0,027.4,020.0,7.1,0000.0,0000.88,0001.30,0000.67
2024-01-07 00:52:00,SystemResetWarning,0819.8,5.00,000.00,018.9,017.5,000.0,027.3,020.0,7.2,0000.0,0000.91,0001.39,0000.67
2024-01-07 00:53:00,SystemResetWarning,0819.7,5.00,000.00,018.9,017.5,000.0,027.3,020.0,7.2,0000.0,0000.93,0001.46,0000.67
2024-01-07 00:54:00,SystemResetWarning,0819.7,5.00,000.00,018.9,017.4,000.0,027.3,020.0,7.2,0000.0,0000.93,0002.18,0000.66
2024-01-07 00:55:00,SystemResetWarning,0819.8,4.99,000.00,018.9,017.4,000.0,027.3,020.0,7.2,0000.0,0000.92,0002.19,0000.66
2024-01-07 00:56:00,SystemResetWarning,0819.8,5.00,000.00,018.9,017.4,000.0,027.3,020.0,7.2,0000.0,0000.92,0002.20,0000.66
2024-01-07 00:57:00,SystemResetWarning,0819.9,5.01,000.00,018.9,017.4,000.0,027.3,020.0,7.2,0000.0,0000.92,0002.19,0000.65
2024-01-07 00:58:00,SystemResetWarning,0820.0,5.01,000.00,018.9,017.4,000.0,027.3,020.0,7.2,0000.0,0000.89,0002.15,0000.64
2024-01-07 00:59:00,SystemResetWarning,0819.8,5.00,000.00,018.9,017.4,000.0,027.3,020.0,7.2,0000.0,0000.89,0002.16,0000.64
